Simultaneous Nadir Overpasses (SNOs) Predictions

Prediction of SNOs between AQUA and METOP-B Satellite Orbit:

Table of predicted SNOs for the next 14.0 days since TLE Epoch: 1/29/2022
Index Date (AQUA) Time (AQUA) Lat,Lon (AQUA) SZA (AQUA ) Date (METOP-B) Time (METOP-B) Lat,Lon (METOP-B) SZA (METOP-B ) Distance(km) Time Diff (sec)
1 01/31/2022 03:09:50 -73.82, -53.08 88.68 01/31/2022 03:09:18 -73.80, -53.15 88.69 3.14 32
2 01/31/2022 03:59:19 73.91, 114.36 91.41 01/31/2022 03:59:56 73.88, 114.37 91.38 3.42 37
3 02/02/2022 22:44:03 -73.82, 13.37 89.48 02/02/2022 22:43:40 -73.83, 13.31 89.47 1.68 23
4 02/02/2022 23:33:32 73.92,-179.20 90.62 02/02/2022 23:34:18 73.90,-179.17 90.59 2.09 46
5 02/05/2022 17:28:39 73.26, -86.61 89.09 02/05/2022 17:27:32 73.24, -88.95 89.19 74.88 67
6 02/05/2022 18:18:16 -73.84, 79.78 90.30 02/05/2022 18:18:02 -73.85, 79.78 90.28 0.91 14
7 02/05/2022 19:07:45 73.94,-112.79 89.80 02/05/2022 19:08:40 73.92,-112.72 89.77 2.86 55
8 02/08/2022 13:02:59 73.66, -21.00 88.65 02/08/2022 13:01:47 73.61, -21.70 88.65 22.67 72
9 02/08/2022 13:52:29 -73.88, 146.17 91.14 02/08/2022 13:52:24 -73.88, 146.24 91.14 2.19 5
10 02/08/2022 14:41:57 73.92, -46.29 88.91 02/08/2022 14:43:02 73.94, -46.27 88.92 2.51 65
11 02/11/2022 08:37:13 73.81, 45.13 87.90 02/11/2022 08:36:05 73.78, 45.10 87.89 3.11 68
12 02/11/2022 09:26:40 -73.87,-147.36 92.05 02/11/2022 09:26:46 -73.85,-147.42 92.07 2.59 6



Historial Predications of SNOs between AQUA and METOP-B
